Radiation Dose at Monitoring Post of Fukushima Daini Nuclear Power Station
Date,Time,MP-1(microSv/h),MP-2(microSv/h),MP-3(microSv/h),MP-4(microSv/h),MP-5(microSv/h),MP-6(microSv/h),MP-7(microSv/h),Wind Direction,Wind Velocity(m/s),Rain
2015/12/23,00:00,0.459,0.273,0.488,0.443,0.420,0.222,0.196,north-northwest,4.9,No
2015/12/23,00:10,0.460,0.271,0.488,0.441,0.421,0.223,0.196,north-northwest,5.5,No
2015/12/23,00:20,0.460,0.271,0.489,0.443,0.421,0.222,0.195,north-northwest,5.1,No
2015/12/23,00:30,0.460,0.273,0.487,0.442,0.421,0.222,0.196,north-northwest,6.1,No
2015/12/23,00:40,0.460,0.272,0.486,0.443,0.420,0.223,0.196,north-northwest,7.1,No
2015/12/23,00:50,0.459,0.272,0.490,0.443,0.421,0.223,0.195,north-northwest,7.6,No
2015/12/23,01:00,0.461,0.271,0.486,0.442,0.422,0.224,0.195,north-northwest,7.1,No
2015/12/23,01:10,0.459,0.272,0.487,0.443,0.423,0.224,0.194,north-northwest,7.5,No
2015/12/23,01:20,0.459,0.271,0.486,0.441,0.420,0.223,0.196,north-northwest,6.4,No
2015/12/23,01:30,0.460,0.273,0.488,0.442,0.421,0.223,0.195,north-northwest,6.3,No
2015/12/23,01:40,0.459,0.271,0.487,0.443,0.421,0.221,0.196,north-northwest,7.4,No
2015/12/23,01:50,0.461,0.271,0.486,0.442,0.423,0.221,0.195,north-northwest,7.0,No
2015/12/23,02:00,0.459,0.271,0.488,0.442,0.420,0.223,0.195,north-northwest,6.7,No
2015/12/23,02:10,0.460,0.271,0.488,0.443,0.421,0.222,0.196,north-northwest,6.6,No
2015/12/23,02:20,0.460,0.272,0.489,0.443,0.423,0.222,0.196,north-northwest,6.0,No
2015/12/23,02:30,0.458,0.272,0.486,0.442,0.422,0.222,0.197,north-northwest,6.1,No
2015/12/23,02:40,0.460,0.271,0.486,0.442,0.420,0.221,0.196,north-northwest,6.0,No
2015/12/23,02:50,0.459,0.271,0.488,0.442,0.422,0.222,0.196,north-northwest,6.0,No
2015/12/23,03:00,0.460,0.271,0.490,0.443,0.423,0.223,0.194,north-northwest,6.1,No
2015/12/23,03:10,0.460,0.272,0.487,0.441,0.421,0.221,0.195,north-northwest,6.2,No
2015/12/23,03:20,0.460,0.273,0.488,0.440,0.422,0.222,0.197,north-northwest,5.7,No
2015/12/23,03:30,0.460,0.271,0.490,0.443,0.421,0.222,0.195,north-northwest,5.5,No
2015/12/23,03:40,0.460,0.271,0.487,0.442,0.421,0.223,0.195,north-northwest,5.5,No
2015/12/23,03:50,0.460,0.271,0.486,0.441,0.421,0.222,0.195,north-northwest,4.2,No
2015/12/23,04:00,0.459,0.272,0.487,0.442,0.422,0.222,0.195,north-northwest,6.1,No
2015/12/23,04:10,0.460,0.271,0.488,0.442,0.420,0.222,0.196,north-northwest,5.8,No
2015/12/23,04:20,0.459,0.272,0.489,0.442,0.422,0.221,0.196,north-northwest,4.3,No
2015/12/23,04:30,0.458,0.271,0.487,0.443,0.422,0.223,0.195,north-northwest,5.3,No
2015/12/23,04:40,0.458,0.270,0.487,0.441,0.422,0.222,0.195,north-northwest,4.4,No
2015/12/23,04:50,0.461,0.273,0.488,0.441,0.421,0.222,0.196,northwest,3.9,No
2015/12/23,05:00,0.460,0.272,0.488,0.444,0.420,0.223,0.195,north-northwest,3.5,No
2015/12/23,05:10,0.459,0.271,0.485,0.441,0.423,0.223,0.195,northwest,3.8,No
2015/12/23,05:20,0.459,0.272,0.487,0.443,0.423,0.224,0.195,northwest,3.1,No
2015/12/23,05:30,0.459,0.272,0.488,0.442,0.419,0.223,0.196,north-northwest,3.3,No
2015/12/23,05:40,0.460,0.271,0.487,0.442,0.420,0.222,0.196,north-northwest,2.1,No
2015/12/23,05:50,0.458,0.271,0.485,0.443,0.423,0.222,0.194,north-northwest,2.1,No
2015/12/23,06:00,0.460,0.271,0.487,0.442,0.421,0.221,0.196,north-northwest,2.2,No
2015/12/23,06:10,0.460,0.271,0.487,0.442,0.420,0.222,0.194,north-northwest,2.3,No
2015/12/23,06:20,0.459,0.272,0.487,0.443,0.421,0.224,0.195,north,2.5,No
2015/12/23,06:30,0.459,0.271,0.486,0.441,0.423,0.221,0.196,north,1.8,No
2015/12/23,06:40,0.458,0.272,0.486,0.442,0.423,0.222,0.195,north,1.4,No
2015/12/23,06:50,0.461,0.272,0.487,0.441,0.420,0.223,0.195,north-northwest,1.7,No
2015/12/23,07:00,0.458,0.270,0.488,0.442,0.421,0.223,0.195,north-northwest,1.4,No
2015/12/23,07:10,0.460,0.271,0.487,0.442,0.422,0.223,0.195,north-northwest,2.8,No
2015/12/23,07:20,0.460,0.272,0.485,0.443,0.423,0.222,0.196,north-northwest,4.2,No
2015/12/23,07:30,0.460,0.272,0.488,0.442,0.421,0.222,0.196,north-northwest,3.3,No
2015/12/23,07:40,0.458,0.272,0.488,0.441,0.421,0.222,0.194,north-northwest,2.7,No
2015/12/23,07:50,0.459,0.270,0.487,0.442,0.421,0.222,0.196,north-northwest,3.8,No
2015/12/23,08:00,0.459,0.271,0.486,0.441,0.422,0.222,0.195,north-northwest,3.7,No
2015/12/23,08:10,0.460,0.271,0.489,0.441,0.421,0.221,0.196,north-northwest,3.6,No
2015/12/23,08:20,0.460,0.269,0.487,0.441,0.420,0.221,0.196,north-northwest,2.7,No
2015/12/23,08:30,0.459,0.271,0.485,0.443,0.425,0.221,0.196,north-northwest,2.2,No
2015/12/23,08:40,0.460,0.271,0.486,0.441,0.421,0.221,0.194,north-northwest,2.0,No
2015/12/23,08:50,0.460,0.271,0.487,0.440,0.422,0.222,0.195,north-northwest,1.7,No
2015/12/23,09:00,0.459,0.271,0.486,0.444,0.421,0.223,0.195,north-northwest,1.2,No
2015/12/23,09:10,0.460,0.270,0.487,0.440,0.423,0.223,0.194,north-northwest,1.3,No
2015/12/23,09:20,0.460,0.272,0.487,0.441,0.421,0.222,0.194,north-northwest,1.9,No
2015/12/23,09:30,0.459,0.271,0.487,0.441,0.422,0.223,0.195,north-northeast,1.8,No
2015/12/23,09:40,0.458,0.269,0.484,0.440,0.422,0.222,0.193,north-northeast,1.8,No
2015/12/23,09:50,0.460,0.272,0.488,0.443,0.420,0.223,0.196,-,CALM,No
2015/12/23,10:00,0.459,0.271,0.485,0.440,0.424,0.223,0.196,-,CALM,No
2015/12/23,10:10,0.460,0.272,0.487,0.442,0.421,0.222,0.196,-,CALM,No
2015/12/23,10:20,0.458,0.270,0.486,0.440,0.423,0.223,0.195,-,CALM,No
2015/12/23,10:30,0.460,0.270,0.484,0.442,0.422,0.222,0.196,south,1.0,No
2015/12/23,10:40,0.458,0.271,0.490,0.442,0.421,0.223,0.196,south-southeast,1.4,No
2015/12/23,10:50,0.460,0.270,0.486,0.441,0.423,0.222,0.196,south-southeast,1.2,No
2015/12/23,11:00,0.460,0.272,0.487,0.442,0.420,0.223,0.196,south-southeast,2.5,No
2015/12/23,11:10,0.458,0.270,0.487,0.439,0.425,0.223,0.195,southeast,1.6,No
2015/12/23,11:20,0.463,0.272,0.485,0.442,0.421,0.223,0.195,south-southeast,1.1,No
2015/12/23,11:30,0.459,0.270,0.488,0.442,0.426,0.223,0.196,southeast,1.8,No
2015/12/23,11:40,0.460,0.270,0.484,0.442,0.423,0.223,0.196,southeast,1.5,No
2015/12/23,11:50,0.462,0.272,0.487,0.445,0.422,0.222,0.195,southeast,1.4,No
2015/12/23,12:00,0.458,0.270,0.486,0.442,0.426,0.222,0.195,south-southeast,1.6,No
2015/12/23,12:10,0.463,0.272,0.485,0.444,0.422,0.223,0.196,southeast,1.3,No
2015/12/23,12:20,0.457,0.270,0.488,0.441,0.424,0.222,0.195,southeast,1.7,No
2015/12/23,12:30,0.460,0.272,0.484,0.443,0.422,0.222,0.196,south-southeast,1.8,No
2015/12/23,12:40,0.458,0.273,0.488,0.443,0.422,0.222,0.195,south-southeast,2.4,No
2015/12/23,12:50,0.460,0.271,0.484,0.443,0.423,0.223,0.196,south-southeast,2.2,No
2015/12/23,13:00,0.461,0.272,0.487,0.443,0.421,0.222,0.196,south-southeast,2.4,No
2015/12/23,13:10,0.458,0.271,0.487,0.441,0.426,0.222,0.195,south-southeast,2.6,No
2015/12/23,13:20,0.462,0.271,0.486,0.444,0.423,0.222,0.196,south,2.4,No
2015/12/23,13:30,0.458,0.272,0.487,0.441,0.425,0.222,0.195,south-southeast,1.8,No
2015/12/23,13:40,0.459,0.271,0.485,0.443,0.424,0.223,0.196,south,2.3,No
2015/12/23,13:50,0.460,0.272,0.489,0.442,0.422,0.222,0.196,south,2.3,No
2015/12/23,14:00,0.461,0.271,0.486,0.441,0.424,0.221,0.196,south,3.3,No
2015/12/23,14:10,0.461,0.271,0.486,0.445,0.424,0.221,0.197,south,3.9,No
2015/12/23,14:20,0.460,0.271,0.486,0.440,0.424,0.223,0.196,south,3.8,No
2015/12/23,14:30,0.462,0.271,0.486,0.443,0.423,0.223,0.195,south,3.4,No
2015/12/23,14:40,0.458,0.273,0.488,0.444,0.423,0.222,0.195,south,4.0,No
2015/12/23,14:50,0.461,0.271,0.485,0.441,0.426,0.222,0.195,south-southeast,4.3,No
2015/12/23,15:00,0.460,0.273,0.487,0.445,0.424,0.222,0.195,south,5.0,No
2015/12/23,15:10,0.460,0.272,0.488,0.442,0.423,0.223,0.195,south,3.8,No
2015/12/23,15:20,0.462,0.272,0.486,0.443,0.423,0.222,0.195,south,3.5,No
2015/12/23,15:30,0.459,0.272,0.488,0.444,0.423,0.223,0.196,south,3.5,No
2015/12/23,15:40,0.462,0.272,0.485,0.442,0.423,0.221,0.195,south,4.7,No
2015/12/23,15:50,0.459,0.271,0.490,0.445,0.424,0.222,0.195,south,6.0,No
2015/12/23,16:00,0.459,0.272,0.486,0.442,0.421,0.222,0.196,south,5.6,No
2015/12/23,16:10,0.462,0.271,0.487,0.442,0.422,0.222,0.195,south,6.1,No
2015/12/23,16:20,0.458,0.272,0.487,0.444,0.422,0.224,0.196,south,5.7,No
2015/12/23,16:30,0.461,0.271,0.485,0.441,0.423,0.222,0.195,south,5.3,No
2015/12/23,16:40,0.460,0.271,0.489,0.445,0.425,0.222,0.195,south,5.1,No
2015/12/23,16:50,0.460,0.271,0.485,0.443,0.422,0.223,0.195,south,2.8,No
2015/12/23,17:00,0.460,0.271,0.488,0.442,0.424,0.222,0.196,south-southwest,3.5,No
2015/12/23,17:10,0.459,0.271,0.487,0.444,0.422,0.223,0.195,south-southwest,3.3,No
2015/12/23,17:20,0.462,0.272,0.487,0.440,0.424,0.221,0.196,south,3.6,No
2015/12/23,17:30,0.459,0.271,0.489,0.443,0.424,0.222,0.196,south,3.9,No
2015/12/23,17:40,0.462,0.272,0.485,0.443,0.421,0.223,0.196,south,3.2,No
2015/12/23,17:50,0.461,0.271,0.488,0.442,0.424,0.222,0.197,south-southwest,3.2,No
2015/12/23,18:00,0.460,0.270,0.488,0.444,0.422,0.224,0.195,south-southwest,4.6,No
2015/12/23,18:10,0.462,0.272,0.486,0.442,0.421,0.221,0.196,south-southwest,5.3,No
2015/12/23,18:20,0.458,0.272,0.488,0.443,0.424,0.223,0.196,south-southwest,6.4,No
2015/12/23,18:30,0.462,0.271,0.486,0.444,0.423,0.223,0.196,south-southwest,6.5,Yes
2015/12/23,18:40,0.461,0.273,0.489,0.442,0.423,0.223,0.196,south-southwest,7.3,Yes
2015/12/23,18:50,0.460,0.273,0.489,0.443,0.424,0.225,0.197,south-southwest,5.8,Yes
2015/12/23,19:00,0.463,0.273,0.488,0.445,0.423,0.223,0.197,south-southwest,6.5,Yes
2015/12/23,19:10,0.462,0.273,0.490,0.444,0.424,0.225,0.198,south-southwest,5.7,Yes
2015/12/23,19:20,0.463,0.273,0.490,0.443,0.423,0.224,0.197,south-southwest,5.7,Yes
2015/12/23,19:30,0.463,0.273,0.488,0.442,0.425,0.226,0.198,south-southwest,4.8,Yes
2015/12/23,19:40,0.459,0.273,0.489,0.443,0.423,0.225,0.198,south-southwest,4.8,Yes
2015/12/23,19:50,0.463,0.274,0.487,0.443,0.423,0.224,0.198,south-southwest,3.9,Yes
2015/12/23,20:00,0.464,0.273,0.487,0.442,0.422,0.226,0.197,south-southwest,2.6,Yes
2015/12/23,20:10,0.459,0.274,0.490,0.442,0.422,0.225,0.198,south-southwest,2.7,Yes
2015/12/23,20:20,0.463,0.274,0.485,0.443,0.423,0.225,0.198,southwest,1.9,Yes
2015/12/23,20:30,0.461,0.273,0.487,0.441,0.421,0.225,0.197,west-southwest,2.5,Yes
2015/12/23,20:40,0.457,0.273,0.489,0.441,0.422,0.225,0.197,west-southwest,2.9,Yes
2015/12/23,20:50,0.461,0.273,0.486,0.443,0.422,0.224,0.199,west-southwest,3.0,Yes
2015/12/23,21:00,0.460,0.273,0.486,0.442,0.420,0.223,0.197,southwest,2.8,Yes
2015/12/23,21:10,0.459,0.274,0.486,0.440,0.422,0.226,0.198,west-southwest,2.7,Yes
2015/12/23,21:20,0.460,0.276,0.486,0.442,0.424,0.226,0.197,west-southwest,2.8,Yes
2015/12/23,21:30,0.458,0.276,0.486,0.440,0.420,0.226,0.198,west-southwest,3.0,Yes
2015/12/23,21:40,0.459,0.273,0.484,0.439,0.420,0.225,0.198,west,2.9,Yes
2015/12/23,21:50,0.460,0.274,0.482,0.439,0.421,0.226,0.199,west,4.0,Yes
2015/12/23,22:00,0.458,0.274,0.483,0.439,0.419,0.226,0.198,southwest,3.0,Yes
2015/12/23,22:10,0.459,0.273,0.482,0.437,0.419,0.227,0.199,southwest,2.7,Yes
2015/12/23,22:20,0.457,0.275,0.476,0.437,0.421,0.226,0.198,south-southwest,2.6,Yes
2015/12/23,22:30,0.455,0.274,0.480,0.437,0.419,0.226,0.198,southwest,2.0,Yes
2015/12/23,22:40,0.458,0.272,0.478,0.435,0.419,0.227,0.198,south-southwest,1.7,Yes
2015/12/23,22:50,0.458,0.275,0.478,0.436,0.421,0.225,0.198,south-southwest,1.1,Yes
2015/12/23,23:00,0.456,0.273,0.481,0.435,0.421,0.224,0.197,south-southwest,0.7,Yes
2015/12/23,23:10,0.457,0.271,0.476,0.435,0.421,0.225,0.198,southwest,0.8,Yes
2015/12/23,23:20,0.454,0.273,0.476,0.436,0.421,0.224,0.196,-,CALM,Yes
2015/12/23,23:30,0.454,0.272,0.479,0.435,0.420,0.224,0.196,-,CALM,Yes
2015/12/23,23:40,0.457,0.271,0.476,0.432,0.418,0.223,0.195,-,CALM,Yes
2015/12/23,23:50,0.454,0.271,0.476,0.436,0.420,0.223,0.195,-,CALM,Yes
